| time (UTC) | temp C | wind direction | speed KPH | gust KPH | rain 1hr cm | rain 24hr cm | rain mn cm | humidity % | barometer mb |
| 20260504151014 | 17 | 231 | 0.0 | 9.7 | 0.00 | 0.00 | 0.00 | 38 | 1012.5 |
| 20260504150514 | 16 | 268 | 4.8 | 16.1 | 0.00 | 0.00 | 0.00 | 38 | 1012.5 |
| 20260504141016 | 15 | 11 | 3.2 | 6.4 | 0.00 | 0.00 | 0.00 | 43 | 1012.5 |
| 20260504140514 | 15 | 204 | 3.2 | 6.4 | 0.00 | 0.00 | 0.00 | 43 | 1012.9 |
| 20260504130514 | 13 | 224 | 3.2 | 4.8 | 0.00 | 0.00 | 0.00 | 48 | 1013.2 |
| 20260504110514 | 6 | 232 | 0.0 | 4.8 | 0.00 | 0.00 | 0.00 | 70 | 1013.5 |
| 20260504100513 | 5 | 95 | 1.6 | 3.2 | 0.00 | 0.00 | 0.00 | 75 | 1013.2 |
| 20260504081514 | 7 | 136 | 1.6 | 3.2 | 0.00 | 0.00 | 0.00 | 68 | 1012.5 |
| 20260504081014 | 7 | 171 | 0.0 | 4.8 | 0.00 | 0.00 | 0.00 | 68 | 1012.5 |
| 20260504080514 | 7 | 356 | 0.0 | 4.8 | 0.00 | 0.00 | 0.00 | 67 | 1012.5 |
| 20260504050514 | 4 | 121 | 1.6 | 4.8 | 0.00 | 0.00 | 0.00 | 80 | 1011.9 |
| 20260504050016 | 4 | 94 | 0.0 | 4.8 | 0.00 | 0.00 | 0.00 | 80 | 1011.9 |
| 20260504045515 | 4 | 320 | 1.6 | 6.4 | 0.00 | 0.00 | 0.00 | 79 | 1011.9 |
| 20260504045014 | 4 | 230 | 3.2 | 4.8 | 0.00 | 0.00 | 0.00 | 79 | 1011.9 |
| 20260504044513 | 5 | 194 | 1.6 | 6.4 | 0.00 | 0.00 | 0.00 | 78 | 1011.9 |
| 20260504044013 | 5 | 5 | 3.2 | 4.8 | 0.00 | 0.00 | 0.00 | 78 | 1011.9 |
| 20260504043514 | 5 | 68 | 0.0 | 4.8 | 0.00 | 0.00 | 0.00 | 78 | 1011.9 |
| 20260504043013 | 5 | 57 | 0.0 | 4.8 | 0.00 | 0.00 | 0.00 | 77 | 1011.9 |
| 20260504042513 | 5 | 264 | 3.2 | 4.8 | 0.00 | 0.00 | 0.00 | 77 | 1011.9 |
| 20260504042013 | 5 | 350 | 3.2 | 4.8 | 0.00 | 0.00 | 0.00 | 76 | 1011.9 |
| 20260504041513 | 5 | 2 | 1.6 | 6.4 | 0.00 | 0.00 | 0.00 | 76 | 1011.9 |
| 20260504041014 | 5 | 288 | 3.2 | 8.0 | 0.00 | 0.00 | 0.00 | 76 | 1011.9 |
| 20260504040513 | 5 | 96 | 3.2 | 4.8 | 0.00 | 0.00 | 0.00 | 75 | 1011.9 |
| 20260504040013 | 5 | 154 | 4.8 | 6.4 | 0.00 | 0.00 | 0.00 | 75 | 1011.9 |
| 20260504035514 | 5 | 78 | 1.6 | 9.7 | 0.00 | 0.00 | 0.00 | 75 | 1011.9 |
| 20260504035013 | 5 | 253 | 0.0 | 4.8 | 0.00 | 0.00 | 0.00 | 75 | 1011.9 |
| 20260504034514 | 5 | 39 | 0.0 | 1.6 | 0.00 | 0.00 | 0.00 | 74 | 1011.9 |
| 20260504034013 | 5 | 353 | 0.0 | 4.8 | 0.00 | 0.00 | 0.00 | 73 | 1011.5 |
| 20260504033514 | 5 | 208 | 1.6 | 6.4 | 0.00 | 0.00 | 0.00 | 73 | 1011.9 |
| 20260504033013 | 5 | 184 | 3.2 | 4.8 | 0.00 | 0.00 | 0.00 | 73 | 1011.9 |
| 20260504032514 | 5 | 306 | 0.0 | 6.4 | 0.00 | 0.00 | 0.00 | 72 | 1011.5 |
| 20260504032013 | 6 | 33 | 4.8 | 8.0 | 0.00 | 0.00 | 0.00 | 71 | 1011.5 |
| 20260504031514 | 6 | 89 | 0.0 | 6.4 | 0.00 | 0.00 | 0.00 | 70 | 1011.9 |
| 20260504031015 | 6 | 94 | 0.0 | 4.8 | 0.00 | 0.00 | 0.00 | 70 | 1011.9 |
| 20260504030513 | 6 | 224 | 0.0 | 0.0 | 0.00 | 0.00 | 0.00 | 70 | 1011.5 |
| 20260504030013 | 6 | 147 | 0.0 | 0.0 | 0.00 | 0.00 | 0.00 | 70 | 1011.5 |
| 20260504025514 | 6 | 230 | 0.0 | 0.0 | 0.00 | 0.00 | 0.00 | 70 | 1011.5 |
| 20260504025013 | 6 | 230 | 0.0 | 0.0 | 0.00 | 0.00 | 0.00 | 70 | 1011.9 |
| 20260504024513 | 6 | 224 | 0.0 | 0.0 | 0.00 | 0.00 | 0.00 | 69 | 1011.5 |
| 20260504024013 | 6 | 224 | 0.0 | 0.0 | 0.00 | 0.00 | 0.00 | 69 | 1011.9 |
| 20260504023513 | 6 | 111 | 0.0 | 0.0 | 0.00 | 0.00 | 0.00 | 68 | 1011.9 |
| 20260504023013 | 6 | 111 | 0.0 | 0.0 | 0.00 | 0.00 | 0.00 | 68 | 1011.9 |
| 20260504022513 | 6 | 147 | 0.0 | 0.0 | 0.00 | 0.00 | 0.00 | 67 | 1011.9 |
| 20260504022014 | 6 | 63 | 0.0 | 0.0 | 0.00 | 0.00 | 0.00 | 65 | 1011.9 |
| 20260504021513 | 7 | 63 | 0.0 | 0.0 | 0.00 | 0.00 | 0.00 | 64 | 1011.5 |
| 20260504021014 | 7 | 63 | 0.0 | 0.0 | 0.00 | 0.00 | 0.00 | 64 | 1011.9 |
| 20260504020514 | 7 | 63 | 0.0 | 0.0 | 0.00 | 0.00 | 0.00 | 64 | 1011.9 |
| 20260504020014 | 7 | 37 | 0.0 | 0.0 | 0.00 | 0.00 | 0.00 | 64 | 1011.9 |
| 20260504015515 | 7 | 37 | 0.0 | 0.0 | 0.00 | 0.00 | 0.00 | 62 | 1011.9 |
| 20260504015013 | 7 | 166 | 0.0 | 0.0 | 0.00 | 0.00 | 0.00 | 61 | 1011.5 |
| 20260504014513 | 8 | 50 | 0.0 | 0.0 | 0.00 | 0.00 | 0.00 | 60 | 1011.5 |
| 20260504014013 | 8 | 117 | 0.0 | 0.0 | 0.00 | 0.00 | 0.00 | 59 | 1011.9 |
| 20260504013513 | 8 | 117 | 0.0 | 0.0 | 0.00 | 0.00 | 0.00 | 58 | 1011.5 |
| 20260504013014 | 8 | 117 | 0.0 | 0.0 | 0.00 | 0.00 | 0.00 | 58 | 1011.5 |
| 20260504012513 | 8 | 117 | 0.0 | 0.0 | 0.00 | 0.00 | 0.00 | 56 | 1011.5 |
| 20260504012014 | 9 | 230 | 0.0 | 0.0 | 0.00 | 0.00 | 0.00 | 53 | 1011.5 |
| 20260504011513 | 9 | 217 | 0.0 | 0.0 | 0.00 | 0.00 | 0.00 | 53 | 1011.5 |
| 20260504011014 | 9 | 50 | 0.0 | 0.0 | 0.00 | 0.00 | 0.00 | 51 | 1011.2 |
| 20260504010513 | 10 | 218 | 0.0 | 0.0 | 0.00 | 0.00 | 0.00 | 51 | 1011.2 |
| 20260504010014 | 10 | 142 | 0.0 | 0.0 | 0.00 | 0.00 | 0.00 | 50 | 1011.2 |
| 20260504005513 | 10 | 44 | 0.0 | 0.0 | 0.00 | 0.00 | 0.00 | 49 | 1011.2 |
| 20260504005013 | 10 | 44 | 0.0 | 0.0 | 0.00 | 0.00 | 0.00 | 47 | 1011.2 |
| 20260504004513 | 11 | 44 | 0.0 | 0.0 | 0.00 | 0.00 | 0.00 | 47 | 1011.2 |
| 20260504004013 | 11 | 44 | 0.0 | 0.0 | 0.00 | 0.00 | 0.00 | 44 | 1010.8 |
| 20260504003513 | 11 | 276 | 0.0 | 0.0 | 0.00 | 0.00 | 0.00 | 43 | 1010.8 |
| 20260504003015 | 11 | 315 | 0.0 | 0.0 | 0.00 | 0.00 | 0.00 | 42 | 1010.8 |
| 20260504002513 | 12 | 315 | 0.0 | 0.0 | 0.00 | 0.00 | 0.00 | 40 | 1010.5 |
| 20260504002013 | 12 | 297 | 0.0 | 1.6 | 0.00 | 0.00 | 0.00 | 40 | 1010.8 |
| 20260504001514 | 12 | 135 | 0.0 | 0.0 | 0.00 | 0.00 | 0.00 | 39 | 1010.5 |
| 20260504001013 | 12 | 176 | 0.0 | 0.0 | 0.00 | 0.00 | 0.00 | 37 | 1010.5 |
| 20260504000513 | 12 | 34 | 0.0 | 0.0 | 0.00 | 0.00 | 0.00 | 37 | 1010.2 |
| 20260504000013 | 13 | 184 | 1.6 | 3.2 | 0.00 | 0.00 | 0.00 | 36 | 1010.5 |
| 20260503235513 | 13 | 336 | 1.6 | 4.8 | 0.00 | 0.00 | 0.00 | 35 | 1010.2 |
| 20260503235013 | 13 | 174 | 1.6 | 3.2 | 0.00 | 0.00 | 0.00 | 36 | 1010.2 |
| 20260503234513 | 13 | 257 | 0.0 | 6.4 | 0.00 | 0.00 | 0.00 | 35 | 1010.2 |
| 20260503234014 | 13 | 191 | 0.0 | 3.2 | 0.00 | 0.00 | 0.00 | 36 | 1009.8 |
| 20260503233514 | 13 | 168 | 3.2 | 4.8 | 0.00 | 0.00 | 0.00 | 35 | 1009.8 |
| 20260503233013 | 13 | 197 | 0.0 | 3.2 | 0.00 | 0.00 | 0.00 | 33 | 1009.8 |
| 20260503232513 | 13 | 38 | 0.0 | 4.8 | 0.00 | 0.00 | 0.00 | 33 | 1009.8 |
| 20260503232015 | 13 | 335 | 1.6 | 8.0 | 0.00 | 0.00 | 0.00 | 33 | 1009.8 |
| 20260503231514 | 13 | 82 | 1.6 | 3.2 | 0.00 | 0.00 | 0.00 | 32 | 1009.8 |
| 20260503231014 | 13 | 160 | 0.0 | 3.2 | 0.00 | 0.00 | 0.00 | 32 | 1009.8 |
| 20260503230514 | 13 | 169 | 1.6 | 4.8 | 0.00 | 0.00 | 0.00 | 32 | 1009.5 |
| 20260503230014 | 13 | 172 | 0.0 | 6.4 | 0.00 | 0.00 | 0.00 | 31 | 1009.5 |
| 20260503225514 | 13 | 315 | 4.8 | 6.4 | 0.00 | 0.00 | 0.00 | 31 | 1009.5 |
| 20260503225013 | 13 | 180 | 0.0 | 6.4 | 0.00 | 0.00 | 0.00 | 30 | 1009.5 |
| 20260503224514 | 13 | 297 | 0.0 | 4.8 | 0.00 | 0.00 | 0.00 | 30 | 1009.8 |
| 20260503224014 | 13 | 18 | 1.6 | 8.0 | 0.00 | 0.00 | 0.00 | 30 | 1009.5 |
| 20260503223513 | 13 | 177 | 3.2 | 9.7 | 0.00 | 0.00 | 0.00 | 30 | 1009.5 |
| 20260503223014 | 14 | 185 | 0.0 | 11.3 | 0.00 | 0.00 | 0.00 | 30 | 1009.5 |
| 20260503222513 | 14 | 337 | 4.8 | 6.4 | 0.00 | 0.00 | 0.00 | 30 | 1009.5 |
| 20260503222013 | 14 | 64 | 6.4 | 11.3 | 0.00 | 0.00 | 0.00 | 30 | 1009.5 |
| 20260503221514 | 14 | 255 | 1.6 | 8.0 | 0.00 | 0.00 | 0.00 | 30 | 1009.5 |
| 20260503221014 | 14 | 148 | 3.2 | 9.7 | 0.00 | 0.00 | 0.00 | 30 | 1009.5 |
| 20260503220513 | 14 | 217 | 0.0 | 6.4 | 0.00 | 0.00 | 0.00 | 30 | 1009.5 |
| 20260503220013 | 15 | 175 | 6.4 | 8.0 | 0.00 | 0.00 | 0.00 | 29 | 1009.5 |
| 20260503215513 | 15 | 327 | 6.4 | 9.7 | 0.00 | 0.00 | 0.00 | 29 | 1009.5 |
| 20260503215013 | 15 | 299 | 1.6 | 9.7 | 0.00 | 0.00 | 0.00 | 29 | 1009.5 |
| 20260503214514 | 15 | 153 | 1.6 | 8.0 | 0.00 | 0.00 | 0.00 | 30 | 1009.5 |
| 20260503214013 | 15 | 25 | 1.6 | 9.7 | 0.00 | 0.00 | 0.00 | 30 | 1009.1 |
| 20260503213513 | 15 | 248 | 4.8 | 11.3 | 0.00 | 0.00 | 0.00 | 30 | 1009.5 |
| 20260503213014 | 15 | 184 | 1.6 | 4.8 | 0.00 | 0.00 | 0.00 | 30 | 1009.5 |
| 20260503212515 | 15 | 329 | 6.4 | 9.7 | 0.00 | 0.00 | 0.00 | 31 | 1009.5 |
| 20260503212014 | 15 | 333 | 3.2 | 8.0 | 0.00 | 0.00 | 0.00 | 31 | 1009.1 |
| 20260503211513 | 15 | 188 | 0.0 | 6.4 | 0.00 | 0.00 | 0.00 | 31 | 1009.5 |
| 20260503211013 | 15 | 183 | 6.4 | 6.4 | 0.00 | 0.00 | 0.00 | 33 | 1009.5 |
| 20260503210513 | 15 | 338 | 4.8 | 8.0 | 0.00 | 0.00 | 0.00 | 32 | 1009.5 |
| 20260503205652 | 14 | 186 | 3.2 | 6.4 | 0.00 | 0.00 | 0.00 | 33 | 1009.1 |
| 20260503205013 | 14 | 165 | 6.4 | 12.9 | 0.00 | 0.00 | 0.00 | 31 | 1009.5 |
| 20260503204513 | 14 | 173 | 3.2 | 11.3 | 0.00 | 0.00 | 0.00 | 31 | 1009.1 |
| 20260503204013 | 15 | 252 | 4.8 | 12.9 | 0.00 | 0.00 | 0.00 | 31 | 1009.1 |
| 20260503203514 | 14 | 135 | 1.6 | 8.0 | 0.00 | 0.00 | 0.00 | 32 | 1009.5 |
| 20260503203013 | 13 | 297 | 3.2 | 11.3 | 0.00 | 0.00 | 0.00 | 34 | 1009.5 |
| 20260503202513 | 13 | 265 | 0.0 | 9.7 | 0.00 | 0.00 | 0.00 | 34 | 1009.1 |
| 20260503202014 | 12 | 313 | 3.2 | 8.0 | 0.00 | 0.00 | 0.00 | 36 | 1009.1 |
| 20260503201514 | 13 | 339 | 4.8 | 8.0 | 0.00 | 0.00 | 0.00 | 35 | 1009.5 |
| 20260503201013 | 14 | 201 | 3.2 | 8.0 | 0.00 | 0.00 | 0.00 | 34 | 1009.1 |
| 20260503200513 | 13 | 194 | 3.2 | 8.0 | 0.00 | 0.00 | 0.00 | 36 | 1009.5 |
| 20260503200013 | 14 | 232 | 4.8 | 11.3 | 0.00 | 0.00 | 0.00 | 36 | 1009.5 |
| 20260503195513 | 14 | 316 | 1.6 | 11.3 | 0.00 | 0.00 | 0.00 | 35 | 1009.5 |
| 20260503195013 | 13 | 244 | 3.2 | 8.0 | 0.00 | 0.00 | 0.00 | 35 | 1009.5 |
| 20260503194514 | 13 | 197 | 1.6 | 9.7 | 0.00 | 0.00 | 0.00 | 34 | 1009.5 |
| 20260503194014 | 13 | 353 | 3.2 | 8.0 | 0.00 | 0.00 | 0.00 | 35 | 1009.5 |
| 20260503193514 | 12 | 214 | 4.8 | 8.0 | 0.00 | 0.00 | 0.00 | 36 | 1009.8 |
| 20260503193013 | 13 | 315 | 0.0 | 9.7 | 0.00 | 0.00 | 0.00 | 36 | 1009.5 |
| 20260503192514 | 13 | 128 | 6.4 | 14.5 | 0.00 | 0.00 | 0.00 | 36 | 1009.8 |
| 20260503192013 | 13 | 184 | 6.4 | 11.3 | 0.00 | 0.00 | 0.00 | 35 | 1009.8 |
| 20260503191514 | 13 | 316 | 6.4 | 12.9 | 0.00 | 0.00 | 0.00 | 36 | 1009.8 |
| 20260503191013 | 13 | 296 | 3.2 | 12.9 | 0.00 | 0.00 | 0.00 | 37 | 1009.8 |
| 20260503190513 | 12 | 332 | 0.0 | 8.0 | 0.00 | 0.00 | 0.00 | 36 | 1009.8 |
| 20260503190013 | 13 | 344 | 4.8 | 11.3 | 0.00 | 0.00 | 0.00 | 36 | 1009.8 |
| 20260503185513 | 12 | 329 | 4.8 | 8.0 | 0.00 | 0.00 | 0.00 | 38 | 1010.2 |
| 20260503185014 | 11 | 176 | 8.0 | 9.7 | 0.00 | 0.00 | 0.00 | 40 | 1009.8 |
| 20260503184514 | 11 | 337 | 6.4 | 8.0 | 0.00 | 0.00 | 0.00 | 40 | 1010.2 |
| 20260503184014 | 11 | 293 | 3.2 | 8.0 | 0.00 | 0.00 | 0.00 | 40 | 1009.8 |
| 20260503183513 | 11 | 214 | 3.2 | 11.3 | 0.00 | 0.00 | 0.00 | 39 | 1010.2 |
| 20260503183013 | 12 | 41 | 3.2 | 11.3 | 0.00 | 0.00 | 0.00 | 37 | 1010.5 |
| 20260503182514 | 12 | 314 | 6.4 | 16.1 | 0.00 | 0.00 | 0.00 | 40 | 1010.2 |
| 20260503182013 | 12 | 170 | 11.3 | 16.1 | 0.00 | 0.00 | 0.00 | 39 | 1009.8 |
| 20260503181515 | 13 | 234 | 4.8 | 12.9 | 0.00 | 0.00 | 0.00 | 37 | 1010.2 |
| 20260503181013 | 12 | 32 | 3.2 | 8.0 | 0.00 | 0.00 | 0.00 | 39 | 1009.8 |
| 20260503180514 | 12 | 334 | 4.8 | 4.8 | 0.00 | 0.00 | 0.00 | 40 | 1009.8 |
| 20260503180014 | 12 | 298 | 6.4 | 11.3 | 0.00 | 0.00 | 0.00 | 36 | 1010.2 |
| 20260503175513 | 11 | 181 | 4.8 | 12.9 | 0.00 | 0.00 | 0.00 | 37 | 1010.2 |
| 20260503175014 | 12 | 289 | 9.7 | 17.7 | 0.00 | 0.00 | 0.00 | 38 | 1010.2 |
| 20260503174515 | 12 | 330 | 9.7 | 12.9 | 0.00 | 0.00 | 0.00 | 37 | 1009.8 |
| 20260503174013 | 12 | 319 | 0.0 | 11.3 | 0.00 | 0.00 | 0.00 | 36 | 1010.2 |
| 20260503173513 | 12 | 358 | 4.8 | 9.7 | 0.00 | 0.00 | 0.00 | 38 | 1009.8 |
| 20260503173013 | 11 | 108 | 1.6 | 9.7 | 0.00 | 0.00 | 0.00 | 36 | 1010.2 |
| 20260503172514 | 11 | 316 | 3.2 | 9.7 | 0.00 | 0.00 | 0.00 | 36 | 1010.2 |
| 20260503172014 | 12 | 183 | 3.2 | 12.9 | 0.00 | 0.00 | 0.00 | 35 | 1009.8 |
| 20260503171513 | 11 | 338 | 8.0 | 12.9 | 0.00 | 0.00 | 0.00 | 38 | 1010.2 |
| 20260503171013 | 12 | 168 | 11.3 | 16.1 | 0.00 | 0.00 | 0.00 | 37 | 1009.8 |
| 20260503170514 | 11 | 172 | 0.0 | 8.0 | 0.00 | 0.00 | 0.00 | 36 | 1010.2 |